Date String (YYYY-MM-DD hh:mm:ss) UTC,Instrument flags,absolute air pressure of the measurement (hPa),sample flow rate (lpm),inlet stack bypass flow (lpm),air temperature of the measurement (°C),ambient temperature measured by the external sensor (°C),aerosol sample conditioner tube jacket temperature (°C),OPC LED temperature (°C),internal box temperature (°C),relative humidity of the measurement (%),span deviation,mass concentration of particles derived from Lorenz-Mie calculation of OPC scattering (μg/m³),mass concentration of particles derived from Lorenz-Mie calculation of OPC scattering (μg/m³),mass concentration of particles derived from Lorenz-Mie calculation of OPC scattering (μg/m³)
DateTimeUTC,F1_M11,P_M11,Q1_M11,Q2_M11,T1_M11,T2_M11,T3_M11,T4_M11,T5_M11,U1_M11,ZSPAN_M11,X0_M11,X2_M11,X1_M11
2024-03-01 16:00:00,SystemResetWarning,0823.1,5.00,000.00,020.3,019.7,000.0,028.4,022.0,11.6,0000.0,0008.43,0002.98,0001.45
2024-03-01 16:01:00,SystemResetWarning,0823.1,5.00,000.00,020.3,019.7,000.0,028.4,022.0,11.6,0000.0,0008.79,0003.00,0001.45
2024-03-01 16:02:00,SystemResetWarning,0823.1,5.00,000.00,020.3,019.7,000.0,028.4,022.0,11.6,0000.0,0008.90,0003.10,0001.47
2024-03-01 16:03:00,SystemResetWarning,0823.1,5.00,000.00,020.3,019.7,000.0,028.4,022.0,11.6,0000.0,0008.65,0003.15,0001.47
2024-03-01 16:04:00,SystemResetWarning,0823.1,5.00,000.00,020.3,019.7,000.0,028.4,022.0,11.4,0000.0,0008.96,0003.14,0001.46
2024-03-01 16:05:00,SystemResetWarning,0823.2,5.00,000.00,020.3,019.8,000.0,028.4,022.1,11.3,0000.0,0008.16,0003.16,0001.47
2024-03-01 16:06:00,SystemResetWarning,0823.1,4.99,000.00,020.4,019.8,000.0,028.4,022.1,11.4,0000.0,0008.20,0003.19,0001.48
2024-03-01 16:07:00,SystemResetWarning,0823.2,4.99,000.00,020.4,019.8,000.0,028.4,022.1,11.4,0000.0,0008.30,0003.21,0001.48
2024-03-01 16:08:00,SystemResetWarning,0823.2,5.00,000.00,020.4,019.8,000.0,028.5,022.1,11.4,0000.0,0008.78,0003.23,0001.49
2024-03-01 16:09:00,SystemResetWarning,0823.1,5.01,000.00,020.4,019.8,000.0,028.5,022.1,11.5,0000.0,0008.98,0003.20,0001.48
2024-03-01 16:10:00,SystemResetWarning,0823.1,5.01,000.00,020.4,019.8,000.0,028.5,022.1,11.4,0000.0,0009.34,0003.19,0001.48
2024-03-01 16:11:00,SystemResetWarning,0823.1,5.00,000.00,020.4,019.8,000.0,028.5,022.1,11.5,0000.0,0009.48,0003.23,0001.48
2024-03-01 16:12:00,SystemResetWarning,0823.2,5.00,000.00,020.4,019.9,000.0,028.5,022.1,11.5,0000.0,0009.09,0003.20,0001.46
2024-03-01 16:13:00,SystemResetWarning,0823.2,5.00,000.00,020.4,019.9,000.0,028.5,022.1,11.6,0000.0,0010.21,0003.19,0001.44
2024-03-01 16:14:00,SystemResetWarning,0823.1,4.99,000.00,020.5,019.9,000.0,028.5,022.1,11.5,0000.0,0009.95,0003.13,0001.43
2024-03-01 16:15:00,SystemResetWarning,0823.2,5.01,000.00,020.5,019.9,000.0,028.5,022.2,11.4,0000.0,0009.66,0003.16,0001.43
2024-03-01 16:16:00,SystemResetWarning,0823.2,5.00,000.00,020.5,019.9,000.0,028.5,022.2,11.5,0000.0,0009.81,0003.17,0001.42
2024-03-01 16:17:00,SystemResetWarning,0823.1,4.99,000.00,020.5,019.9,000.0,028.6,022.2,11.5,0000.0,0009.62,0003.13,0001.43
2024-03-01 16:18:00,SystemResetWarning,0822.8,4.99,000.00,020.5,020.0,000.0,028.6,022.2,11.2,0000.0,0009.68,0003.14,0001.44
2024-03-01 16:19:00,SystemResetWarning,0823.0,5.00,000.00,020.5,020.0,000.0,028.6,022.2,11.5,0000.0,0009.78,0003.13,0001.43
2024-03-01 16:20:00,SystemResetWarning,0823.1,5.00,000.00,020.5,020.0,000.0,028.6,022.2,11.4,0000.0,0009.56,0003.15,0001.45
2024-03-01 16:21:00,SystemResetWarning,0823.2,5.00,000.00,020.6,020.0,000.0,028.6,022.2,11.3,0000.0,0009.03,0003.16,0001.45
2024-03-01 16:22:00,SystemResetWarning,0823.4,5.00,000.00,020.6,020.0,000.0,028.6,022.2,11.2,0000.0,0008.94,0003.10,0001.44
2024-03-01 16:23:00,SystemResetWarning,0823.5,5.00,000.00,020.6,020.1,000.0,028.6,022.2,11.1,0000.0,0008.87,0003.08,0001.43
2024-03-01 16:24:00,SystemResetWarning,0823.7,5.00,000.00,020.6,020.1,000.0,028.6,022.2,11.2,0000.0,0008.27,0003.08,0001.43
2024-03-01 16:25:00,SystemResetWarning,0823.6,5.00,000.00,020.6,020.1,000.0,028.7,022.3,11.4,0000.0,0007.85,0003.09,0001.43
2024-03-01 16:26:00,SystemResetWarning,0823.6,5.00,000.00,020.7,020.2,000.0,028.7,022.3,11.3,0000.0,0007.79,0003.07,0001.44
2024-03-01 16:27:00,SystemResetWarning,0823.5,5.00,000.00,020.7,020.2,000.0,028.7,022.3,11.2,0000.0,0007.59,0003.04,0001.44
2024-03-01 16:28:00,SystemResetWarning,0823.5,5.00,000.00,020.7,020.2,000.0,028.7,022.4,11.2,0000.0,0008.27,0003.02,0001.43
2024-03-01 16:29:00,SystemResetWarning,0823.5,4.99,000.00,020.7,020.2,000.0,028.7,022.4,11.0,0000.0,0008.29,0003.00,0001.41
2024-03-01 16:30:00,SystemResetWarning,0823.4,4.99,000.00,020.8,020.3,000.0,028.8,022.4,10.9,0000.0,0007.93,0003.02,0001.42
2024-03-01 16:31:00,SystemResetWarning,0823.4,5.00,000.00,020.8,020.3,000.0,028.8,022.4,10.7,0000.0,0007.96,0002.99,0001.41
2024-03-01 16:32:00,SystemResetWarning,0823.5,5.00,000.00,020.8,020.3,000.0,028.8,022.5,10.9,0000.0,0007.80,0002.97,0001.39
2024-03-01 16:33:00,SystemResetWarning,0823.5,5.00,000.00,020.8,020.4,000.0,028.8,022.5,11.1,0000.0,0007.76,0003.00,0001.41
2024-03-01 16:34:00,SystemResetWarning,0823.5,5.00,000.00,020.9,020.4,000.0,028.8,022.5,11.1,0000.0,0008.04,0003.03,0001.44
2024-03-01 16:35:00,SystemResetWarning,0823.4,5.01,000.00,020.9,020.4,000.0,028.9,022.6,11.1,0000.0,0008.35,0002.99,0001.45
2024-03-01 16:36:00,SystemResetWarning,0823.5,5.00,000.00,020.9,020.5,000.0,028.9,022.6,10.9,0000.0,0008.25,0002.96,0001.47
2024-03-01 16:37:00,SystemResetWarning,0823.5,5.00,000.00,020.9,020.5,000.0,028.9,022.6,10.8,0000.0,0008.32,0002.99,0001.49
2024-03-01 16:38:00,SystemResetWarning,0823.5,4.99,000.00,021.0,020.5,000.0,029.0,022.7,10.7,0000.0,0008.90,0003.01,0001.50
2024-03-01 16:39:00,SystemResetWarning,0823.5,5.00,000.00,021.0,020.6,000.0,029.0,022.7,10.8,0000.0,0008.47,0003.06,0001.51
2024-03-01 16:40:00,SystemResetWarning,0823.5,4.99,000.00,021.0,020.6,000.0,029.0,022.7,11.0,0000.0,0008.36,0003.09,0001.55
2024-03-01 16:41:00,SystemResetWarning,0823.5,4.99,000.00,021.1,020.6,000.0,029.0,022.8,10.8,0000.0,0008.31,0003.08,0001.57
2024-03-01 16:42:00,SystemResetWarning,0823.5,5.00,000.00,021.1,020.6,000.0,029.1,022.8,10.7,0000.0,0008.32,0003.09,0001.59
2024-03-01 16:43:00,SystemResetWarning,0823.5,5.00,000.00,021.1,020.7,000.0,029.1,022.8,10.8,0000.0,0008.42,0003.13,0001.63
2024-03-01 16:44:00,SystemResetWarning,0823.5,5.00,000.00,021.1,020.7,000.0,029.1,022.8,10.7,0000.0,0008.54,0003.14,0001.63
2024-03-01 16:45:00,SystemResetWarning,0823.7,4.99,000.00,021.2,020.7,000.0,029.1,022.9,10.8,0000.0,0008.25,0003.11,0001.61
2024-03-01 16:46:00,SystemResetWarning,0823.6,5.01,000.00,021.2,020.7,000.0,029.1,022.9,10.8,0000.0,0007.67,0003.12,0001.62
2024-03-01 16:47:00,SystemResetWarning,0823.6,5.01,000.00,021.2,020.8,000.0,029.2,022.9,10.7,0000.0,0007.97,0003.13,0001.61
2024-03-01 16:48:00,SystemResetWarning,0823.6,5.00,000.00,021.2,020.8,000.0,029.2,023.0,10.5,0000.0,0008.39,0003.16,0001.60
2024-03-01 16:49:00,SystemResetWarning,0823.7,4.99,000.00,021.3,020.8,000.0,029.2,023.0,10.5,0000.0,0008.12,0003.18,0001.60
2024-03-01 16:50:00,SystemResetWarning,0823.7,5.01,000.00,021.3,020.8,000.0,029.3,023.0,10.6,0000.0,0007.91,0003.16,0001.60
2024-03-01 16:51:00,SystemResetWarning,0823.6,5.01,000.00,021.3,020.9,000.0,029.3,023.0,10.6,0000.0,0007.90,0003.15,0001.59
2024-03-01 16:52:00,SystemResetWarning,0823.5,5.00,000.00,021.3,020.9,000.0,029.3,023.0,10.7,0000.0,0007.89,0003.17,0001.58
2024-03-01 16:53:00,SystemResetWarning,0823.5,4.99,000.00,021.4,020.9,000.0,029.3,023.1,10.7,0000.0,0007.91,0003.19,0001.57
2024-03-01 16:54:00,SystemResetWarning,0823.6,4.99,000.00,021.4,020.9,000.0,029.3,023.1,10.6,0000.0,0008.09,0003.19,0001.56
2024-03-01 16:55:00,SystemResetWarning,0823.6,5.00,000.00,021.4,021.0,000.0,029.4,023.1,10.6,0000.0,0008.11,0003.21,0001.56
2024-03-01 16:56:00,SystemResetWarning,0823.6,5.00,000.00,021.5,021.0,000.0,029.4,023.2,10.8,0000.0,0008.10,0003.22,0001.56
2024-03-01 16:57:00,SystemResetWarning,0823.5,5.01,000.00,021.5,021.0,000.0,029.4,023.2,10.8,0000.0,0008.19,0003.21,0001.55
2024-03-01 16:58:00,SystemResetWarning,0823.4,5.00,000.00,021.5,021.0,000.0,029.5,023.2,10.6,0000.0,0008.03,0003.21,0001.54
2024-03-01 16:59:00,SystemResetWarning,0823.5,5.00,000.00,021.5,021.1,000.0,029.5,023.3,10.6,0000.0,0007.77,0003.23,0001.55
